Flag for U.S.A. Weather past 2 weeks in Carson City, Nevada, U.S.A.

Now
52 °F

Passing clouds.


Feels Like: 51 °F
Forecast: 46 / 71 °F
Wind: 5 mph from Southwest

Location: Reno Tahoe International Airport

Current Time: Sep 4, 2015 at 6:34:54 AM

Latest Report: Sep 4, 2015 at 5:55 AM


Visibility: 10 mi

Pressure: 29.75 "Hg (25.07 "Hg at 1425m altitude)

Humidity: 57%

Dew point: 37 °F

Location of Carson CityLocation

Historic Weather in Carson City — Graph

°F

Carson City temperature yesterday

Maximum temperature yesterday: 79 °F (at 12:55 PM)
Minimum temperature yesterday: 60 °F (at 5:55 AM)
Average temperature yesterday: 70 °F

Past Weeks' High & Low Weather Summary

 TemperatureHumidityPressure
High96 °F (Aug 20, 3:55 PM)64% (Aug 30, 5:55 AM)30.12 "Hg (Aug 30, 5:55 AM)
Low53 °F (Aug 31, 5:55 AM)4% (Aug 20, 1:55 PM)29.69 "Hg (Sep 3, 3:55 PM)
Average75 °F25%29.88 "Hg
* Reported Aug 20 4:55 AM — Sep 4 4:55 AM, Carson City, Weather by CustomWeather, © 2015

Note: Actual official high and low records may vary slightly from our data, if they occured in-between our weather recording intervals... More about our weather records

Advertising

Carson City weather history for previous 24 hours

 ConditionsComfort  
Time TempWeatherWind HumidityBarometerVisibility
4:55 AM
Fri, Sep 4
55 °FPassing clouds.No wind53%29.74 "Hg10 mi
3:55 AM54 °FPassing clouds.No wind53%29.74 "Hg10 mi
2:55 AM58 °FPassing clouds.No wind50%29.74 "Hg10 mi
1:55 AM61 °FPartly cloudy.9 mph46%29.75 "Hg10 mi
12:55 AM62 °FMostly cloudy.10 mph44%29.74 "Hg10 mi
11:55 PM
Thu, Sep 3
64 °FPartly cloudy.10 mph38%29.74 "Hg10 mi
10:55 PM64 °FPartly cloudy.20 mph38%29.73 "Hg10 mi
9:55 PM65 °FPartly cloudy.12 mph37%29.75 "Hg10 mi
8:55 PM66 °FPartly cloudy.No wind33%29.76 "Hg10 mi
7:55 PM68 °FScattered clouds.10 mph30%29.74 "Hg10 mi
6:55 PM71 °FScattered clouds.18 mph27%29.71 "Hg10 mi
5:55 PM74 °FScattered clouds.16 mph23%29.71 "Hg10 mi
4:55 PM77 °FScattered clouds.21 mph22%29.70 "Hg10 mi
3:55 PM79 °FScattered clouds.21 mph20%29.69 "Hg10 mi
2:55 PM78 °FScattered clouds.9 mph22%29.72 "Hg10 mi
1:55 PM79 °FScattered clouds.17 mph20%29.72 "Hg10 mi
12:55 PM79 °FScattered clouds.15 mph20%29.72 "Hg10 mi
11:55 AM78 °FScattered clouds.12 mph20%29.74 "Hg10 mi
10:55 AM76 °FScattered clouds.16 mph23%29.75 "Hg10 mi
9:55 AM73 °FBroken clouds.5 mph26%29.78 "Hg10 mi
8:55 AM68 °FBroken clouds.7 mph33%29.79 "Hg10 mi
7:55 AM68 °FPartly sunny.No wind36%29.78 "Hg10 mi
6:55 AM65 °FPartly cloudy.5 mph39%29.76 "Hg10 mi
Weather by CustomWeather, © 2015

See weather overviewHow to use our weather pages